QPF
0.06 0.08 0.09 0.08 0.08 0.07 0.07 0.07 0.08 0.08 0.07 0.06 0.05 0.04 0.04 0.05 0.04 0.04 0.04 0.04 0.06 0.06 0.04 0.03 0.02 0.02 0.01 0.01 0.01 0.01 0.01 0.02 0.03 0.03 0.04 0.04 0.07 0.10
0.05 0.04 0.05 0.04 0.05 0.05 0.04 0.04 0.05 0.06 0.06 0.06 0.05 0.04 0.03 0.03 0.03 0.04 0.05 0.04 0.03 0.04 0.04 0.04 0.03 0.02 0.01 0.02 0.01 0.01 0.01 0.01 0.02 0.03 0.04 0.03 0.03 0.04
0.03 0.04 0.05 0.06 0.08 0.08 0.08 0.06 0.05 0.05 0.05 0.06 0.05 0.05 0.05 0.05 0.05 0.04 0.05 0.04 0.02 0.02 0.03 0.03 0.03 0.03 0.02 0.01 0.01 0.01 0.01 0.01 0.01 0.01 0.02 0.04 0.03 0.03
0.04 0.04 0.04 0.07 0.10 0.10 0.10 0.08 0.07 0.06 0.05 0.05 0.04 0.05 0.05 0.04 0.04 0.03 0.03 0.03 0.03 0.03 0.03 0.03 0.03 0.03 0.02 0.01 0.01 0.01 0.01 0.01 0.01 0.01 0.01 0.02 0.04 0.03
0.03 0.03 0.03 0.05 0.05 0.05 0.06 0.06 0.06 0.06 0.06 0.04 0.03 0.03 0.04 0.03 0.04 0.03 0.03 0.03 0.03 0.03 0.04 0.04 0.04 0.03 0.02 0.01 0.01 0.01 0.01 0.01 0.02 0.01 0.00 0.01 0.03 0.04
0.03 0.03 0.04 0.04 0.04 0.05 0.05 0.07 0.07 0.08 0.07 0.06 0.05 0.04 0.04 0.04 0.04 0.03 0.03 0.03 0.03 0.03 0.03 0.03 0.03 0.03 0.02 0.02 0.01 0.01 0.01 0.01 0.02 0.03 0.02 0.01 0.02 0.04
0.03 0.03 0.03 0.02 0.03 0.03 0.03 0.06 0.07 0.07 0.07 0.07 0.07 0.07 0.06 0.06 0.04 0.03 0.03 0.03 0.04 0.05 0.04 0.03 0.03 0.02 0.02 0.01 0.01 0.01 0.00 0.01 0.01 0.02 0.03 0.03 0.02 0.04
0.03 0.03 0.02 0.01 0.02 0.02 0.01 0.02 0.03 0.04 0.06 0.09 0.10 0.11 0.11 0.10 0.09 0.08 0.07 0.06 0.05 0.04 0.05 0.04 0.05 0.05 0.03 0.02 0.02 0.02 0.01 0.01 0.01 0.01 0.02 0.02 0.02 0.02
0.04 0.02 0.01 0.01 0.01 0.01 0.02 0.02 0.03 0.04 0.06 0.07 0.08 0.08 0.09 0.09 0.09 0.09 0.09 0.09 0.07 0.07 0.07 0.05 0.04 0.07 0.08 0.06 0.04 0.02 0.02 0.02 0.01 0.01 0.01 0.01 0.01 0.01
0.03 0.02 0.02 0.01 0.01 0.01 0.02 0.02 0.04 0.05 0.05 0.04 0.05 0.05 0.05 0.05 0.05 0.05 0.06 0.06 0.05 0.06 0.07 0.06 0.05 0.05 0.05 0.09 0.10 0.07 0.03 0.02 0.01 0.01 0.01 0.02 0.02 0.01
0.02 0.02 0.02 0.02 0.02 0.02 0.02 0.03 0.04 0.04 0.03 0.04 0.03 0.02 0.01 0.01 0.02 0.03 0.03 0.03 0.03 0.03 0.05 0.05 0.05 0.05 0.04 0.04 0.07 0.10 0.07 0.04 0.03 0.03 0.02 0.03 0.03 0.02
0.02 0.02 0.03 0.03 0.03 0.03 0.03 0.03 0.03 0.04 0.02 0.02 0.02 0.01 0.01 0.01 0.01 0.02 0.03 0.03 0.03 0.03 0.04 0.07 0.06 0.05 0.06 0.04 0.03 0.05 0.07 0.06 0.05 0.03 0.02 0.02 0.03 0.03
0.01 0.02 0.03 0.04 0.04 0.04 0.03 0.03 0.03 0.03 0.02 0.02 0.02 0.02 0.02 0.02 0.01 0.01 0.02 0.03 0.03 0.03 0.04 0.06 0.07 0.06 0.06 0.04 0.04 0.04 0.05 0.06 0.06 0.03 0.02 0.02 0.02 0.02
0.01 0.02 0.02 0.03 0.03 0.03 0.03 0.03 0.03 0.02 0.01 0.01 0.02 0.02 0.02 0.02 0.02 0.02 0.01 0.02 0.03 0.04 0.04 0.07 0.08 0.08 0.06 0.04 0.03 0.04 0.05 0.06 0.06 0.05 0.04 0.03 0.02 0.03
0.01 0.01 0.01 0.02 0.02 0.02 0.03 0.03 0.03 0.03 0.03 0.02 0.01 0.01 0.02 0.02 0.03 0.03 0.03 0.04 0.04 0.03 0.03 0.06 0.07 0.08 0.08 0.06 0.04 0.04 0.05 0.06 0.07 0.06 0.06 0.06 0.05 0.04
0.01 0.01 0.01 0.01 0.02 0.02 0.03 0.03 0.03 0.03 0.04 0.03 0.02 0.02 0.02 0.02 0.03 0.03 0.04 0.05 0.04 0.03 0.03 0.04 0.06 0.06 0.06 0.06 0.05 0.05 0.06 0.07 0.08 0.08 0.09 0.09 0.08 0.06
0.02 0.01 0.01 0.02 0.02 0.03 0.04 0.05 0.05 0.06 0.06 0.06 0.04 0.03 0.03 0.03 0.03 0.03 0.04 0.05 0.04 0.03 0.02 0.03 0.04 0.05 0.05 0.05 0.04 0.03 0.04 0.05 0.07 0.09 0.11 0.13 0.14 0.11
0.01 0.01 0.02 0.03 0.04 0.05 0.05 0.05 0.06 0.07 0.06 0.06 0.07 0.05 0.04 0.04 0.04 0.04 0.05 0.05 0.05 0.04 0.02 0.02 0.03 0.04 0.06 0.05 0.03 0.03 0.03 0.03 0.05 0.09 0.11 0.11 0.11 0.11
0.02 0.02 0.03 0.05 0.06 0.05 0.06 0.07 0.06 0.05 0.05 0.05 0.05 0.06 0.05 0.05 0.05 0.04 0.04 0.05 0.06 0.06 0.05 0.04 0.05 0.04 0.05 0.05 0.04 0.03 0.03 0.04 0.05 0.07 0.08 0.10 0.10 0.08
0.02 0.03 0.03 0.06 0.09 0.11 0.09 0.08 0.07 0.07 0.07 0.06 0.06 0.07 0.06 0.05 0.05 0.04 0.04 0.05 0.06 0.05 0.05 0.05 0.06 0.06 0.06 0.05 0.05 0.04 0.03 0.04 0.06 0.07 0.07 0.07 0.09 0.08
0.03 0.03 0.04 0.08 0.10 0.14 0.16 0.13 0.10 0.10 0.10 0.08 0.07 0.06 0.06 0.05 0.05 0.04 0.04 0.05 0.06 0.05 0.04 0.03 0.03 0.04 0.05 0.06 0.05 0.05 0.04 0.05 0.07 0.08 0.08 0.07 0.08 0.07
0.03 0.02 0.03 0.08 0.10 0.10 0.09 0.09 0.09 0.08 0.07 0.07 0.06 0.06 0.05 0.05 0.05 0.04 0.03 0.05 0.05 0.04 0.04 0.04 0.04 0.05 0.05 0.04 0.04 0.04 0.05 0.05 0.07 0.08 0.07 0.07 0.08 0.08
0.03 0.03 0.03 0.03 0.06 0.07 0.07 0.05 0.05 0.03 0.02 0.01 0.02 0.03 0.03 0.04 0.03 0.03 0.04 0.04 0.04 0.04 0.04 0.04 0.04 0.05 0.05 0.04 0.04 0.04 0.05 0.06 0.06 0.07 0.06 0.07 0.09 0.10
MSLP
1004.10 1004.09 1004.08 1004.04 1003.95 1003.77 1003.49 1003.12 1002.66 1002.15 1001.62 1001.11 1000.66 1000.30 1000.07 999.98 1000.04 1000.27 1000.64 1001.14 1001.74 1002.41 1003.10 1003.77 1004.39 1004.92 1005.35 1005.67 1005.89 1006.04 1006.14 1006.22 1006.30 1006.42 1006.56 1006.75 1006.96 1007.20
1003.83 1003.70 1003.57 1003.41 1003.19 1002.91 1002.55 1002.11 1001.61 1001.07 1000.53 1000.02 999.58 999.23 999.01 998.92 998.99 999.22 999.60 1000.11 1000.73 1001.42 1002.15 1002.87 1003.54 1004.14 1004.65 1005.05 1005.35 1005.58 1005.75 1005.89 1006.02 1006.15 1006.31 1006.49 1006.68 1006.89
1003.96 1003.72 1003.45 1003.14 1002.78 1002.36 1001.87 1001.33 1000.76 1000.18 999.61 999.10 998.67 998.34 998.14 998.08 998.17 998.41 998.78 999.29 999.90 1000.58 1001.30 1002.03 1002.72 1003.35 1003.91 1004.38 1004.76 1005.06 1005.31 1005.52 1005.71 1005.90 1006.08 1006.27 1006.45 1006.63
1004.48 1004.13 1003.74 1003.30 1002.79 1002.23 1001.61 1000.96 1000.30 999.66 999.06 998.54 998.12 997.82 997.65 997.62 997.72 997.96 998.33 998.80 999.37 1000.00 1000.67 1001.35 1002.01 1002.63 1003.19 1003.68 1004.11 1004.48 1004.80 1005.08 1005.34 1005.58 1005.80 1006.00 1006.19 1006.35
1005.26 1004.85 1004.38 1003.83 1003.21 1002.53 1001.80 1001.05 1000.31 999.61 998.99 998.46 998.05 997.78 997.64 997.63 997.75 997.98 998.32 998.74 999.23 999.77 1000.34 1000.92 1001.49 1002.03 1002.55 1003.02 1003.46 1003.85 1004.22 1004.56 1004.87 1005.15 1005.41 1005.64 1005.83 1005.99
1006.12 1005.71 1005.21 1004.61 1003.94 1003.19 1002.39 1001.57 1000.78 1000.04 999.40 998.87 998.47 998.22 998.11 998.12 998.25 998.47 998.76 999.11 999.50 999.91 1000.34 1000.77 1001.20 1001.62 1002.03 1002.43 1002.83 1003.21 1003.59 1003.95 1004.29 1004.61 1004.90 1005.15 1005.36 1005.52
1006.90 1006.52 1006.04 1005.47 1004.80 1004.04 1003.23 1002.40 1001.59 1000.84 1000.19 999.67 999.29 999.07 998.98 999.00 999.13 999.32 999.56 999.83 1000.10 1000.37 1000.63 1000.89 1001.14 1001.40 1001.67 1001.96 1002.27 1002.60 1002.94 1003.30 1003.65 1003.98 1004.29 1004.55 1004.77 1004.93
1007.44 1007.12 1006.72 1006.22 1005.61 1004.90 1004.13 1003.34 1002.55 1001.83 1001.20 1000.70 1000.34 1000.14 1000.06 1000.10 1000.21 1000.38 1000.56 1000.74 1000.90 1001.02 1001.12 1001.20 1001.27 1001.36 1001.47 1001.62 1001.82 1002.06 1002.35 1002.66 1002.99 1003.31 1003.61 1003.88 1004.09 1004.26
1007.67 1007.44 1007.14 1006.73 1006.23 1005.62 1004.94 1004.21 1003.49 1002.81 1002.22 1001.75 1001.42 1001.23 1001.17 1001.20 1001.31 1001.44 1001.57 1001.67 1001.73 1001.73 1001.68 1001.60 1001.51 1001.44 1001.40 1001.41 1001.49 1001.63 1001.83 1002.09 1002.37 1002.66 1002.93 1003.18 1003.38 1003.52
1007.63 1007.48 1007.27 1006.97 1006.58 1006.09 1005.52 1004.89 1004.25 1003.64 1003.10 1002.66 1002.35 1002.17 1002.11 1002.13 1002.22 1002.32 1002.41 1002.45 1002.43 1002.34 1002.19 1001.99 1001.78 1001.58 1001.41 1001.31 1001.28 1001.33 1001.45 1001.62 1001.84 1002.07 1002.30 1002.51 1002.67 1002.78
1007.43 1007.33 1007.19 1006.99 1006.70 1006.32 1005.85 1005.32 1004.77 1004.22 1003.73 1003.32 1003.03 1002.85 1002.77 1002.78 1002.84 1002.91 1002.96 1002.96 1002.89 1002.75 1002.53 1002.27 1001.99 1001.71 1001.47 1001.28 1001.17 1001.14 1001.18 1001.28 1001.43 1001.59 1001.75 1001.90 1002.00 1002.06
1007.22 1007.13 1007.03 1006.88 1006.66 1006.36 1005.98 1005.54 1005.06 1004.57 1004.12 1003.73 1003.44 1003.25 1003.15 1003.13 1003.15 1003.19 1003.21 1003.18 1003.09 1002.92 1002.69 1002.41 1002.10 1001.79 1001.52 1001.29 1001.13 1001.04 1001.02 1001.05 1001.12 1001.20 1001.28 1001.35 1001.38 1001.38
1007.11 1007.00 1006.89 1006.76 1006.57 1006.32 1006.00 1005.61 1005.18 1004.74 1004.32 1003.95 1003.65 1003.43 1003.30 1003.23 1003.22 1003.21 1003.20 1003.15 1003.04 1002.88 1002.66 1002.39 1002.10 1001.81 1001.53 1001.30 1001.12 1000.99 1000.91 1000.87 1000.86 1000.86 1000.86 1000.84 1000.79 1000.71
1007.18 1007.01 1006.87 1006.71 1006.52 1006.27 1005.98 1005.62 1005.23 1004.82 1004.42 1004.05 1003.74 1003.50 1003.32 1003.21 1003.14 1003.08 1003.03 1002.96 1002.84 1002.69 1002.49 1002.25 1002.00 1001.74 1001.49 1001.27 1001.08 1000.92 1000.79 1000.69 1000.60 1000.52 1000.42 1000.32 1000.19 1000.04
1007.40 1007.17 1006.95 1006.75 1006.52 1006.27 1005.98 1005.64 1005.27 1004.89 1004.51 1004.15 1003.83 1003.55 1003.33 1003.16 1003.03 1002.93 1002.83 1002.72 1002.59 1002.43 1002.25 1002.04 1001.83 1001.60 1001.38 1001.16 1000.96 1000.78 1000.61 1000.44 1000.28 1000.11 999.93 999.74 999.54 999.34
1007.68 1007.39 1007.11 1006.84 1006.58 1006.30 1006.01 1005.69 1005.35 1004.99 1004.64 1004.29 1003.97 1003.68 1003.42 1003.20 1003.01 1002.84 1002.68 1002.53 1002.37 1002.19 1002.01 1001.82 1001.61 1001.40 1001.19 1000.97 1000.75 1000.54 1000.31 1000.08 999.84 999.59 999.33 999.07 998.82 998.58
1007.93 1007.57 1007.24 1006.93 1006.63 1006.34 1006.05 1005.75 1005.45 1005.14 1004.83 1004.51 1004.20 1003.91 1003.63 1003.36 1003.11 1002.88 1002.66 1002.45 1002.23 1002.03 1001.82 1001.60 1001.39 1001.17 1000.94 1000.70 1000.44 1000.17 999.88 999.58 999.27 998.95 998.62 998.31 998.03 997.77
1008.02 1007.63 1007.27 1006.92 1006.61 1006.32 1006.06 1005.81 1005.56 1005.31 1005.05 1004.79 1004.51 1004.23 1003.94 1003.65 1003.35 1003.06 1002.77 1002.49 1002.21 1001.95 1001.69 1001.43 1001.18 1000.91 1000.64 1000.35 1000.04 999.71 999.35 998.97 998.59 998.20 997.83 997.49 997.19 996.93
1007.90 1007.51 1007.14 1006.80 1006.50 1006.24 1006.02 1005.82 1005.64 1005.47 1005.29 1005.09 1004.86 1004.60 1004.32 1004.00 1003.67 1003.32 1002.97 1002.62 1002.28 1001.95 1001.63 1001.31 1000.99 1000.67 1000.34 999.98 999.60 999.19 998.76 998.32 997.87 997.44 997.03 996.67 996.37 996.13
1007.61 1007.24 1006.88 1006.56 1006.29 1006.08 1005.91 1005.79 1005.69 1005.60 1005.50 1005.36 1005.19 1004.96 1004.69 1004.37 1004.01 1003.62 1003.22 1002.81 1002.40 1002.00 1001.62 1001.24 1000.86 1000.47 1000.07 999.64 999.19 998.71 998.21 997.71 997.21 996.74 996.31 995.94 995.64 995.43
1007.21 1006.87 1006.54 1006.27 1006.04 1005.89 1005.79 1005.74 1005.71 1005.70 1005.66 1005.59 1005.46 1005.26 1005.00 1004.68 1004.30 1003.88 1003.44 1002.99 1002.54 1002.09 1001.65 1001.22 1000.78 1000.34 999.88 999.39 998.88 998.34 997.79 997.23 996.69 996.19 995.75 995.38 995.10 994.91
1006.82 1006.51 1006.23 1005.99 1005.82 1005.72 1005.68 1005.69 1005.73 1005.76 1005.78 1005.75 1005.65 1005.47 1005.22 1004.89 1004.50 1004.07 1003.60 1003.13 1002.65 1002.17 1001.71 1001.25 1000.79 1000.31 999.81 999.29 998.73 998.15 997.56 996.98 996.41 995.89 995.44 995.07 994.80 994.63
1006.53 1006.26 1006.02 1005.82 1005.70 1005.64 1005.64 1005.69 1005.76 1005.83 1005.86 1005.84 1005.75 1005.58 1005.32 1004.99 1004.59 1004.15 1003.68 1003.20 1002.72 1002.25 1001.79 1001.34 1000.87 1000.40 999.90 999.36 998.80 998.21 997.60 997.00 996.43 995.90 995.44 995.07 994.80 994.63
Thickness
5739 5738 5736 5736 5736 5736 5735 5732 5724 5718 5720 5726 5729 5732 5732 5730 5728 5726 5724 5722 5720 5718 5717 5716 5714 5713 5713 5712 5712 5712 5711 5711 5711 5711 5711 5711 5710 5710
5734 5732 5730 5730 5730 5730 5729 5729 5727 5720 5716 5721 5724 5727 5727 5726 5724 5722 5721 5719 5717 5716 5715 5713 5711 5710 5709 5708 5708 5708 5708 5708 5707 5707 5707 5707 5706 5706
5728 5726 5724 5724 5723 5724 5723 5722 5721 5718 5713 5715 5719 5721 5720 5719 5717 5717 5716 5715 5713 5713 5711 5710 5708 5706 5705 5704 5704 5704 5703 5703 5704 5704 5703 5703 5702 5702
5721 5719 5718 5718 5716 5716 5715 5714 5713 5713 5710 5707 5709 5712 5712 5713 5712 5711 5711 5711 5710 5709 5708 5706 5703 5702 5701 5700 5700 5699 5699 5698 5699 5699 5699 5698 5698 5697
5715 5713 5711 5710 5708 5707 5707 5706 5707 5708 5706 5703 5703 5704 5705 5706 5704 5704 5705 5704 5705 5705 5703 5701 5699 5697 5696 5696 5695 5694 5694 5694 5694 5694 5694 5694 5694 5693
5709 5707 5706 5703 5701 5700 5700 5699 5700 5698 5699 5697 5696 5696 5696 5697 5696 5693 5693 5695 5696 5698 5697 5695 5694 5693 5692 5691 5691 5690 5690 5689 5689 5689 5689 5689 5689 5689
5703 5702 5700 5698 5696 5693 5693 5691 5691 5689 5689 5688 5687 5686 5685 5684 5683 5684 5683 5684 5687 5689 5688 5688 5688 5686 5686 5686 5686 5686 5685 5684 5684 5684 5684 5684 5683 5683
5696 5695 5694 5692 5689 5686 5685 5684 5683 5682 5680 5678 5677 5675 5674 5674 5674 5674 5673 5673 5673 5679 5678 5680 5682 5680 5681 5681 5681 5681 5680 5679 5679 5679 5679 5679 5678 5678
5690 5688 5688 5687 5683 5680 5678 5677 5676 5676 5673 5671 5668 5667 5667 5667 5665 5665 5664 5663 5664 5670 5670 5671 5674 5674 5676 5677 5676 5676 5675 5674 5674 5673 5673 5673 5673 5672
5685 5682 5680 5677 5675 5672 5671 5670 5669 5668 5667 5665 5663 5662 5662 5661 5659 5658 5658 5659 5661 5664 5664 5661 5665 5666 5670 5669 5669 5669 5669 5669 5668 5668 5667 5667 5666 5666
5680 5677 5674 5670 5668 5665 5663 5662 5661 5660 5661 5659 5658 5657 5656 5655 5653 5651 5651 5650 5650 5654 5657 5655 5656 5658 5660 5661 5662 5662 5662 5661 5661 5661 5661 5661 5660 5660
5673 5671 5668 5664 5661 5658 5656 5654 5652 5652 5652 5652 5651 5651 5650 5649 5648 5646 5644 5642 5642 5644 5648 5647 5647 5648 5648 5652 5653 5654 5654 5654 5654 5654 5654 5654 5653 5652
5666 5664 5661 5657 5654 5652 5650 5648 5647 5646 5645 5645 5645 5645 5645 5644 5643 5641 5640 5637 5635 5636 5640 5639 5638 5638 5637 5639 5644 5646 5647 5647 5647 5647 5647 5647 5646 5646
5658 5657 5654 5650 5648 5646 5644 5643 5641 5639 5639 5639 5639 5638 5638 5637 5637 5636 5635 5634 5633 5632 5633 5632 5630 5629 5628 5629 5632 5636 5638 5640 5640 5640 5640 5640 5639 5640
5650 5649 5646 5643 5641 5640 5639 5637 5634 5632 5632 5631 5631 5632 5632 5632 5631 5630 5629 5629 5628 5628 5628 5627 5625 5624 5623 5621 5623 5626 5628 5631 5633 5633 5633 5633 5633 5633
5641 5640 5638 5637 5635 5634 5633 5631 5629 5628 5626 5625 5625 5625 5625 5625 5624 5623 5621 5620 5619 5620 5621 5621 5621 5619 5617 5617 5617 5618 5620 5621 5624 5624 5625 5626 5627 5628
5631 5631 5630 5629 5628 5627 5627 5627 5625 5623 5620 5619 5618 5617 5616 5616 5615 5616 5614 5613 5611 5611 5612 5614 5615 5614 5613 5611 5610 5611 5613 5614 5615 5616 5616 5618 5621 5622
5623 5623 5622 5621 5620 5620 5620 5619 5618 5617 5615 5613 5611 5610 5608 5608 5607 5607 5606 5605 5604 5604 5604 5606 5605 5604 5604 5606 5606 5605 5605 5606 5607 5608 5609 5610 5613 5615
5615 5616 5615 5614 5614 5614 5613 5612 5610 5609 5608 5605 5604 5603 5602 5601 5600 5598 5597 5597 5596 5596 5597 5598 5597 5595 5593 5594 5599 5599 5598 5598 5599 5600 5602 5603 5605 5609
5611 5610 5609 5608 5608 5607 5606 5604 5602 5601 5600 5598 5597 5596 5594 5593 5592 5590 5590 5589 5589 5589 5590 5590 5590 5589 5587 5587 5589 5592 5594 5593 5593 5593 5595 5598 5600 5602
5606 5605 5604 5603 5601 5599 5598 5596 5594 5593 5591 5590 5590 5589 5588 5586 5585 5584 5583 5582 5582 5582 5582 5583 5585 5585 5585 5584 5583 5585 5587 5588 5588 5588 5589 5590 5591 5593
5600 5599 5598 5596 5595 5592 5591 5589 5587 5585 5583 5582 5582 5581 5581 5580 5578 5577 5577 5576 5575 5576 5576 5578 5579 5579 5578 5576 5577 5578 5579 5581 5581 5582 5583 5584 5584 5586
5596 5594 5592 5590 5587 5585 5583 5582 5580 5577 5575 5575 5575 5575 5574 5574 5573 5572 5571 5570 5569 5570 5570 5570 5571 5572 5571 5571 5570 5571 5572 5573 5574 5575 5576 5577 5579 5581